Weather History for Faith, SD

Change the Weather History Date:

Tuesday, October 7, 2014

  Actual Average Record
Temperature  
Mean Temperature 50 °F 50 °F  
Max Temperature 60 °F 62 °F 89 °F (2010)
Min Temperature 40 °F 38 °F 17 °F (2000)
Degree Days  
Heating Degree Days 15 15  
Month to date heating degree days 105 97  
Since 1 July heating degree days 353 329  
Cooling Degree Days 0 0  
Month to date cooling degree days 0 0  
Year to date cooling degree days 445 634  
Growing Degree Days 2 (Base 50)    
Moisture  
Dew Point 34 °F    
Average Humidity 49    
Maximum Humidity 66    
Minimum Humidity 31    
Precipitation  
Precipitation 0.00 in 0.04 in 0.02 in (1999)
Month to date precipitation 0.00 0.24  
Year to date precipitation 17.65 15.42  
Sea Level Pressure  
Sea Level Pressure 29.93 in    
Wind  
Wind Speed 16 mph (WNW)    
Max Wind Speed 31 mph    
Max Gust Speed 36 mph    
T = Trace of Precipitation, MM = Missing Value Source: NWS Daily Summary

Daily Weather History Graph

Daily Weather History Graph

Search for Another Location

Airport:

Trip Planner

Search our weather history database for the weather conditions in past years. The results will help you decide how hot, cold, wet, or windy it might be!

Date:

Astronomy

Oct. 07, 2014 Rise Set
Actual Time 6:53 AM MDT 6:17 PM MDT
Civil Twilight 6:24 AM MDT 6:46 PM MDT
Nautical Twilight 5:50 AM MDT 7:20 PM MDT
Astronomical Twilight 5:15 AM MDT 7:54 PM MDT
Moon 5:54 PM MDT (10/7) 5:50 AM MDT (10/7)
Length of Visible Light 12h 22m
Length of Day
11h 23m
Waxing Gibbous, 99% of the Moon is Illuminated
Oct 7
Waxing Gibbous
Oct 8
Full
Oct 15
Last Quarter
Oct 23
New
Oct 30
First Quarter

Hourly Weather History & Observations

Time (MDT) Temp. Windchill Dew Point Humidity Pressure Visibility Wind Dir Wind Speed Gust Speed Precip Events Conditions
12:56 AM 57.9 °F - 43.0 °F 58% 29.73 in - NW 20.7 mph 27.6 mph N/A   Unknown
1:56 AM 55.9 °F - 44.1 °F 64% 29.75 in - WNW 15.0 mph - N/A   Unknown
2:56 AM 54.0 °F - 43.0 °F 66% 29.77 in - WNW 12.7 mph - N/A   Unknown
3:56 AM 53.1 °F - 41.0 °F 64% 29.80 in - WNW 12.7 mph - N/A   Unknown
4:56 AM 54.0 °F - 39.9 °F 59% 29.81 in - NW 16.1 mph - N/A   Unknown
5:56 AM 52.0 °F - 39.0 °F 61% 29.85 in - WNW 15.0 mph - N/A   Unknown
6:56 AM 52.0 °F - 37.0 °F 57% 29.87 in - WNW 15.0 mph - N/A   Unknown
7:56 AM 52.0 °F - 37.0 °F 57% 29.89 in - WNW 16.1 mph - N/A   Unknown
8:56 AM 53.1 °F - 36.0 °F 52% 29.92 in - NW 23.0 mph 29.9 mph N/A   Unknown
9:56 AM 54.0 °F - 36.0 °F 51% 29.94 in - NW 19.6 mph 27.6 mph N/A   Unknown
10:56 AM 57.0 °F - 33.1 °F 40% 29.94 in - NW 25.3 mph 33.4 mph N/A   Unknown
11:56 AM 55.9 °F - 32.0 °F 40% 29.96 in - NW 23.0 mph 32.2 mph N/A   Unknown
12:56 PM 57.0 °F - 28.9 °F 34% 29.96 in - WNW 25.3 mph 34.5 mph N/A   Unknown
1:56 PM 59.0 °F - 28.9 °F 32% 29.96 in - NW 26.5 mph 33.4 mph N/A   Unknown
3:56 PM 55.9 °F - 28.0 °F 34% 30.00 in - NW 23.0 mph 27.6 mph N/A   Unknown
4:56 PM 55.0 °F - 28.9 °F 37% 30.01 in - WNW 16.1 mph - N/A   Unknown
5:56 PM 53.1 °F - 30.0 °F 41% 30.02 in - WNW 10.4 mph - N/A   Unknown
6:56 PM 46.9 °F - 30.0 °F 52% 30.04 in - West 9.2 mph - N/A   Unknown
7:56 PM 44.1 °F 40.1 °F 30.0 °F 58% 30.05 in - West 6.9 mph - N/A   Unknown
8:56 PM 44.1 °F 40.8 °F 28.9 °F 55% 30.05 in - West 5.8 mph - N/A   Unknown
9:56 PM 45.0 °F 43.5 °F 28.0 °F 52% 30.06 in - West 3.5 mph - N/A   Unknown
10:56 PM 45.0 °F 42.6 °F 28.0 °F 52% 30.06 in - WSW 4.6 mph - N/A   Unknown
11:56 PM 46.0 °F - 27.0 °F 47% 30.06 in - North - - N/A   Unknown